C/2018 N2 ( ASASSN )

Japanese version
Home page
Updated on October 6, 2021

---------------------------------------------------------------------

* Profile

Discovery Date July 7, 2018
Magnitude 16.4 mag
Discoverer All-Sky Automated Survey for Supernovae (ASASSN) program

* Pictures

* Orbital Elements

Epoch 2019 Nov. 13.0 TT = JDT 2458800.5
T 2019 Nov. 10.95962 TT                                 Rudenko
q   3.1246484            (2000.0)            P               Q
z  -0.0000537      Peri.   24.39552     +0.78558804     -0.45744197
 +/-0.0000003      Node    25.25925     +0.27011874     -0.35227582
e   1.0001679      Incl.   77.53194     +0.55667521     +0.81648551
From 4151 observations 2018 July 7-2021 May 1, mean residual 0".6.

* Finding Charts

* Magnitudes Graph

        m1 = 5.5 + 5 log d + 8.5 log r(t + 50)

---------------------------------------------------------------------

The orbital elements are published on M.P.E.C. 2021-J28.
The charts are made with StellaNavigator Ver.10 (AstroArts).
The magnitudes graphs are made with Comet for Windows.

---------------------------------------------------------------------

Copyright(C) Seiichi Yoshida (comet@aerith.net). All rights reserved.